Fountain Dale, PA

6:11 AM EDT on July 28, 2017 (GMT -0400)
Fountain Dale

Weather History for KRYT - January, 2013

Change the Weather History Date:

Sunday, January 27, 2013

  Actual Average (KHGR) Record (KHGR)
Temperature  
Mean Temperature 25 °F -  
Max Temperature 32 °F 35 °F 64 °F (2002)
Min Temperature 18 °F 21 °F 8 °F (2003)
Degree Days  
Heating Degree Days 40    
Moisture  
Dew Point 16 °F    
Average Humidity 64    
Maximum Humidity 77    
Minimum Humidity 47    
Precipitation  
Precipitation 0.00 in - - ()
Sea Level Pressure  
Sea Level Pressure 30.51 in    
Wind  
Wind Speed 1 mph (West)    
Max Wind Speed 5 mph    
Max Gust Speed -    
Visibility 8 miles    
Events Snow    
Averages and records for this station are not official NWS values.
T = Trace of Precipitation, MM = Missing Value Source: NWS Daily Summary

Daily Weather History Graph

Daily Weather History Graph

Search for Another Location

Airport or City:

Trip Planner

Search our weather history database for the weather conditions in past years. The results will help you decide how hot, cold, wet, or windy it might be!

Date:

Astronomy

Jan. 27, 2013 Rise Set
Actual Time 7:21 AM EST 5:23 PM EST
Civil Twilight 6:52 AM EST 5:52 PM EST
Nautical Twilight 6:20 AM EST 6:25 PM EST
Astronomical Twilight 5:48 AM EST 6:57 PM EST
Moon 6:15 PM EST (1/27) 7:13 AM EST (1/27)
Length of Visible Light 10h 59m
Length of Day
10h 02m
Full, 100% of the Moon is Illuminated
Jan 27
Full
Feb 3
Last Quarter
Feb 10
New
Feb 17
First Quarter
Feb 25
Full

Hourly Weather History & Observations

Time (EST) Temp. Windchill Dew Point Humidity Pressure Visibility Wind Dir Wind Speed Gust Speed Precip Events Conditions
12:20 AM 24.8 °F - 17.6 °F 74% 30.38 in 2.0 mi Calm Calm - 0.00 in Snow Light Snow
12:53 AM 24.1 °F - 18.0 °F 77% 30.46 in 2.5 mi Calm Calm - 0.00 in Snow Light Snow
1:53 AM 25.0 °F - 18.0 °F 75% 30.46 in 5.0 mi Calm Calm - 0.00 in   Haze
2:53 AM 26.1 °F - 18.0 °F 71% 30.48 in 6.0 mi Calm Calm - 0.00 in   Haze
3:21 AM 26.6 °F - 17.6 °F 69% 30.41 in 5.0 mi Calm Calm - 0.00 in Snow Light Snow
3:53 AM 25.0 °F - 17.1 °F 72% 30.49 in 7.0 mi Calm Calm - 0.00 in   Overcast
4:53 AM 25.0 °F - 16.0 °F 69% 30.50 in 7.0 mi Calm Calm - N/A   Mostly Cloudy
6:53 AM 19.0 °F - 12.0 °F 74% 30.53 in 8.0 mi Calm Calm - N/A   Clear
7:53 AM 18.0 °F - 10.9 °F 74% 30.58 in 7.0 mi Calm Calm - N/A   Clear
8:53 AM 21.9 °F - 12.0 °F 66% 30.59 in 10.0 mi Calm Calm - N/A   Clear
9:53 AM 27.0 °F 21.6 °F 12.9 °F 56% 30.59 in 10.0 mi NW 4.6 mph - N/A   Clear
10:53 AM 28.0 °F - 14.0 °F 56% 30.59 in 10.0 mi Calm Calm - N/A   Clear
11:53 AM 30.9 °F - 12.9 °F 47% 30.57 in 10.0 mi Calm Calm - N/A   Clear
12:53 PM 30.9 °F 26.2 °F 14.0 °F 50% 30.52 in 10.0 mi West 4.6 mph - N/A   Clear
1:53 PM 30.9 °F 26.2 °F 15.1 °F 52% 30.53 in 10.0 mi Variable 4.6 mph - N/A   Clear
2:53 PM 32.0 °F 28.7 °F 15.1 °F 50% 30.51 in 9.0 mi WSW 3.5 mph - N/A   Clear
3:53 PM 32.0 °F 28.7 °F 15.1 °F 50% 30.50 in 9.0 mi Variable 3.5 mph - N/A   Clear
4:53 PM 30.9 °F 27.5 °F 14.0 °F 50% 30.51 in 10.0 mi West 3.5 mph - N/A   Clear
5:53 PM 28.9 °F - 15.1 °F 56% 30.52 in 10.0 mi Calm Calm - N/A   Clear
6:53 PM 27.0 °F - 17.1 °F 66% 30.53 in 10.0 mi Calm Calm - N/A   Clear
7:53 PM 26.1 °F - 17.1 °F 69% 30.52 in 9.0 mi Calm Calm - N/A   Clear
8:53 PM 25.0 °F - 15.1 °F 66% 30.52 in 10.0 mi Calm Calm - N/A   Clear
9:53 PM 25.0 °F - 17.1 °F 72% 30.51 in 8.0 mi Calm Calm - N/A   Clear
10:53 PM 27.0 °F - 18.0 °F 69% 30.49 in 7.0 mi Calm Calm - N/A   Mostly Cloudy
11:53 PM 28.0 °F - 19.0 °F 69% 30.48 in 7.0 mi Calm Calm - N/A   Overcast